Weather in Solotcha

Russia / Ryazan Oblast     54°55′29″N   39°50′04″E
temp.,
°C
wind,
m/s
gust,
m/s
humid.,
%
clouds,
%
prec.,
mm/h
press.,
hPa
HPBL,
m
2 march, tue
tue200:00+1wsw51291100 0.0 1014747
03:00+1wsw51293100 0.0 1012703
06:00+1w51293100 0.0 1009762
09:00+1wnw51296100 0.1 1009901
12:00+2nw51082100 0.2 10071220
15:00+2nw5108189 0.4 10071181
18:00−1nw3118879 0.1 1007373
21:00−1nw4118988 0.2 1009599
3 march, wed
wed300:00−2nw41194100 0.3 1010797
03:00−3nw4109399 0.4 1012782
06:00−6nw5129069 0.0 1013755
09:00−5nw5118384 0.0 1015776
12:00−2nw5107421 0.0 1014959
15:00−1wnw5108252 0.1 10141078
18:00−2wnw4109195 0.1 1013797
21:00−2wnw4129296 0.3 1014710
4 march, thu
thu400:00−2w4119297 0.0 1012565
03:00−3wsw4119098 0.1 1011595
06:00−2wsw51489100 0.1 1007592
09:000wsw61584100 0.1 1004883
12:00+1wsw71478100 0.0 10011090
15:00+1wsw7138399 0.0 9991187
18:00+1w51290100 0.0 9981033
21:000w51296100 0.1 999726
5 march, fri
fri500:00−3nw2981100 0.3 1001393
03:00−4nw2687100 0.3 1003271
06:00−7nnw2494100 0.0 1005120
09:00−6nnw128754 0.0 1007196
12:00−2nnw117486 0.0 1007605
15:00−2wnw007093 0.0 1008768
18:00−4e0083100 0.0 100821
21:00−5ne1289100 0.0 100835
6 march, sat
sat600:00−6nne2395100 0.0 1008106
03:00−8nnw239668 0.0 100992
06:00−9nw259637 0.0 1009151
09:00−8nw358641 0.0 1010302
12:00−5nw3576100 0.0 1010873
15:00−4nw4667100 0.2 10111238
18:00−7wnw2678100 0.2 1011252
21:00−9wsw239060 0.2 101287